Riverton, WY

6:01 AM MDT on October 24, 2017 (GMT -0600)
Riverton Regional

Weather History for KRIW - July, 2014

Change the Weather History Date:

Friday, July 25, 2014

  Actual Average Record
Temperature  
Mean Temperature 77 °F 73 °F  
Max Temperature 94 °F 89 °F 96 °F (2011)
Min Temperature 59 °F 58 °F 50 °F (2004)
Degree Days  
Heating Degree Days 0 0  
Month to date heating degree days 4 8  
Since 1 June heating degree days 130 127  
Since 1 July heating degree days 4 8  
Cooling Degree Days 12 8  
Month to date cooling degree days 209 170  
Year to date cooling degree days 247 245  
Since 1 June cooling degree days 232 236  
Growing Degree Days 26 (Base 50)    
Moisture  
Dew Point 28 °F    
Average Humidity 28    
Maximum Humidity 48    
Minimum Humidity 7    
Precipitation  
Precipitation 0.00 in 0.02 in 0.64 in (2007)
Month to date precipitation 0.47 0.76  
Year to date precipitation 3.91 6.12  
Snow  
Snow 0.00 in - - ()
Month to date snowfall 0.0  
Since 1 June snowfall 0.0  
Since 1 July snowfall 0.0  
Snow Depth 0.00 in    
Sea Level Pressure  
Sea Level Pressure 29.83 in    
Wind  
Wind Speed 11 mph (NW)    
Max Wind Speed 29 mph    
Max Gust Speed 35 mph    
Visibility 10 miles    
Events      
T = Trace of Precipitation, MM = Missing Value Source: NWS Daily Summary

Daily Weather History Graph

Daily Weather History Graph

Search for Another Location

Airport or City:

Trip Planner

Search our weather history database for the weather conditions in past years. The results will help you decide how hot, cold, wet, or windy it might be!

Date:

Astronomy

Jul. 25, 2014 Rise Set
Actual Time 5:57 AM MDT 8:42 PM MDT
Civil Twilight 5:24 AM MDT 9:15 PM MDT
Nautical Twilight 4:42 AM MDT 9:57 PM MDT
Astronomical Twilight 3:54 AM MDT 10:44 PM MDT
Moon 5:00 AM MDT (7/25) 7:40 PM MDT (7/25)
Length of Visible Light 15h 51m
Length of Day
14h 45m
Waning Crescent, 1% of the Moon is Illuminated
Jul 25
Waning Crescent
Jul 26
New
Aug 3
First Quarter
Aug 10
Full
Aug 17
Last Quarter

Hourly Weather History & Observations

Time (MDT) Temp. Dew Point Humidity Pressure Visibility Wind Dir Wind Speed Gust Speed Precip Events Conditions
12:53 AM 66.0 °F 25.0 °F 21% 29.82 in 10.0 mi NW 13.8 mph - N/A   Clear
1:53 AM 62.1 °F 21.9 °F 21% 29.82 in 10.0 mi NNW 11.5 mph - N/A   Clear
2:53 AM 62.1 °F 21.0 °F 21% 29.82 in 10.0 mi West 4.6 mph - N/A   Clear
3:53 AM 62.1 °F 23.0 °F 22% 29.83 in 10.0 mi WSW 8.1 mph - N/A   Clear
4:53 AM 64.9 °F 21.9 °F 19% 29.83 in 10.0 mi West 4.6 mph - N/A   Overcast
5:53 AM 60.1 °F 24.1 °F 25% 29.85 in 10.0 mi North 6.9 mph - N/A   Mostly Cloudy
6:53 AM 62.1 °F 26.1 °F 25% 29.85 in 10.0 mi North 4.6 mph - N/A   Clear
7:53 AM 64.9 °F 45.0 °F 48% 29.86 in 10.0 mi NNE 5.8 mph - N/A   Clear
8:53 AM 69.1 °F 45.0 °F 42% 29.86 in 10.0 mi North 6.9 mph - N/A   Clear
9:53 AM 73.9 °F 36.0 °F 25% 29.84 in 10.0 mi NNE 9.2 mph - N/A   Clear
10:53 AM 77.0 °F 37.4 °F 24% 30.06 in 10.0 mi Variable 3.5 mph - N/A   Clear
11:53 AM 80.1 °F 35.1 °F 20% 29.83 in 10.0 mi East 3.5 mph - N/A   Clear
12:53 PM 84.0 °F 37.0 °F 19% 29.81 in 10.0 mi ESE 6.9 mph - N/A   Clear
1:53 PM 86.0 °F 32.0 °F 14% 29.79 in 10.0 mi South 4.6 mph - N/A   Clear
2:53 PM 93.0 °F 23.0 °F 8% 29.75 in 10.0 mi West 23.0 mph 32.2 mph N/A   Clear
3:53 PM 91.0 °F 23.0 °F 8% 29.75 in 10.0 mi West 15.0 mph - N/A   Clear
4:53 PM 93.0 °F 21.9 °F 8% 29.73 in 10.0 mi WSW 20.7 mph 31.1 mph N/A   Clear
5:53 PM 91.9 °F 24.1 °F 9% 29.74 in 10.0 mi West 18.4 mph 27.6 mph N/A   Clear
6:53 PM 90.0 °F 23.0 °F 9% 29.74 in 10.0 mi West 27.6 mph 35.7 mph N/A   Clear
7:53 PM 84.9 °F 24.1 °F 11% 29.76 in 10.0 mi NW 17.3 mph 31.1 mph N/A   Clear
8:53 PM 79.0 °F 21.9 °F 12% 29.79 in 10.0 mi NW 16.1 mph - N/A   Clear
9:53 PM 75.0 °F 23.0 °F 14% 29.84 in 10.0 mi NW 17.3 mph - N/A   Clear
10:53 PM 69.8 °F 28.4 °F 21% 30.08 in 10.0 mi NW 12.7 mph - N/A   Clear
11:53 PM 66.0 °F 24.1 °F 20% 29.89 in 10.0 mi NW 10.4 mph - N/A   Clear